Regional Weather Roundup
Issued by NWS

Home | Current Version | Previous Version | Graphics & Text | Print | Product List | Glossary On
Versions: 1 2 3 4 5 6 7 8 9 10 11 12 13 14 15 16 17 18 19 20 21 22 23 24 25 26 27 28 29 30 31 32 33 34 35 36 37 38 39 40 41 42 43 44 45 46 47 48 49 50
000
ASUS43 KFSD 011910
RWRSD

WEATHER ROUNDUP FOR SOUTH DAKOTA
NATIONAL WEATHER SERVICE SIOUX FALLS SD
200 PM CDT MON JUN 01 2015

NOTE: "FAIR" INDICATES FEW OR NO CLOUDS BELOW 12,000 FEET WITH NO
SIGNIFICANT WEATHER AND/OR OBSTRUCTIONS TO VISIBILITY.


SDZ001>005-009-010-012>017-012000-
NORTHWEST AND NORTH CENTRAL SOUTH DAKOTA

CITY           SKY/WX    TMP DP  RH WIND       PRES   REMARKS
BUFFALO          N/A     82  60  47 S16G23    29.82F
FAITH            N/A     78  60  53 SE18      29.90F
MOBRIDGE       SUNNY     80  58  46 S18       29.90F
$$

SDZ012>016-024>037-041>051-057-063-072>074-012000-
SOUTHWEST AND SOUTH CENTRAL SOUTH DAKOTA

CITY           SKY/WX    TMP DP  RH WIND       PRES   REMARKS
RAPID CTY ARPT MOSUNNY   83  61  47 SE17G24   29.90F
PIERRE         SUNNY     80  62  54 SE17G24   29.91F
CUSTER         PTSUNNY   77  46  33 VRB7G18   30.04F
ELLSWORTH AFB  PTSUNNY   83  62  49 S17G26    29.89F
PHILIP         SUNNY     83  62  49 SE13      29.89F
PINE RIDGE     SUNNY     83  57  41 S14G23    29.94F
SPEARFISH      LGT RAIN  81  63  54 E7        29.93F
WINNER         FAIR      82  59  45 S20G28    29.97F
$$

SDZ004>011-016>023-039-040-012000-
NORTHEAST SOUTH DAKOTA

CITY           SKY/WX    TMP DP  RH WIND       PRES   REMARKS
ABERDEEN       SUNNY     77  56  48 S21G31    29.97F
WATERTOWN      PTSUNNY   72  50  45 S20G26    30.06S
BROOKINGS      MOSUNNY   72  48  43 S17G24    30.08F
SISSETON         N/A     71  47  42 S21G28    30.04F
$$

SDZ017-020-022-023-036>040-048>070-012000-
SOUTHEAST SOUTH DAKOTA

CITY           SKY/WX    TMP DP  RH WIND       PRES   REMARKS
SIOUX FALLS    MOSUNNY   72  48  42 S17G28    30.07F
HURON          MOSUNNY   77  55  46 SE21G31   29.99F
CHAMBERLAIN    SUNNY     76  61  59 S20G26    29.97F
MITCHELL       SUNNY     77  55  46 S22G29    30.02F
YANKTON        SUNNY     77  52  41 S17G25    30.03F
$$

ABBREVIATIONS USED IN REMARKS
   TC - TEMPERATURE IN CELSIUS
  WCI - WIND CHILL INDEX
   HX - HEAT INDEX
  VSB - VISIBILITY



USA.gov is the U.S. government's official web portal to all federal, state and local government web resources and services.